Regional Weather Roundup
Issued by NWS

Home | Current Version | Previous Version | Text Only | Print | Product List | Glossary Off
Versions: 1 2 3 4 5 6 7 8 9 10 11 12 13 14 15 16 17 18 19 20 21 22 23 24 25 26 27 28 29 30 31 32 33 34 35 36 37 38 39 40 41 42 43 44 45 46 47 48 49 50

000
ASUS45 KBOU 040607
RWRCO

WEATHER ROUNDUP FOR COLORADO
NATIONAL WEATHER SERVICE DENVER/BOULDER CO
1100 PM MST TUE MAR 03 2015

NOTE: "FAIR" INDICATES FEW OR NO CLOUDS BELOW 12000 FEET WITH NO
SIGNIFICANT WEATHER AND/OR OBSTRUCTIONS TO VISIBILITY.

COZ001>005-013-030-031-040700-
...NORTHWEST COLORADO...

CITY           SKY/WX    TMP DP  RH WIND       PRES   REMARKS
CRAIG            N/A     20  16  84 CALM      29.89R
HAYDEN         MOCLDY    18  12  79 W6        29.86R WCI   9
MEEKER         LGT SNOW  24  17  74 NE15G21   29.87R WCI  11
MOUNT WERNER   NOT AVBL
STEAMBOAT SPGS CLOUDY    19  13  76 W6        29.83R WCI  11
WALDEN         CLOUDY    10   7  85 W3        29.76R
$$

COZ006>008-011-040700-
...WEST CENTRAL VALLEYS...

CITY           SKY/WX    TMP DP  RH WIND       PRES   REMARKS
GRAND JUNCTION FOG       27  27 100 NW5       29.88R VSB 1/2 WCI  22
MONTROSE       CLOUDY    29  27  92 S6        29.87S WCI  23
EAGLE          CLOUDY    25  23  93 CALM      29.84R
RIFLE          CLOUDY    30  26  85 W5        29.86R WCI  25
DELTA          CLOUDY    32  30  93 W7        29.85R WCI  26
NUCLA          CLOUDY    30  28  93 CALM      29.91S
$$

COZ017>023-064>068-040700-
...SOUTHWEST COLORADO...

CITY           SKY/WX    TMP DP  RH WIND       PRES   REMARKS
DURANGO        PTCLDY    26  24  92 CALM      29.86S
CORTEZ         CLEAR     27  25  92 CALM      29.88R
PAGOSA SPRINGS CLOUDY    20  20  98 NE3       29.86R
TELLURIDE      CLOUDY    23  14  70 CALM      29.84R
WOLF CREEK PAS CLOUDY    10   9  92 MISG      29.79S
$$

COZ009-010-012-014-032>034-037-058>063-040700-
...CENTRAL COLORADO...

CITY           SKY/WX    TMP DP  RH WIND       PRES   REMARKS
ASPEN          LGT SNOW  23  21  92 N3        29.77R VSB 3/4
BUENA VISTA    PTCLDY    23  11  60 S6        29.74S WCI  16
COPPER MTN     NOT AVBL
BERTHOUD PASS  SNOW       1  -6  71 N15G25    29.67R VSB 1/4 WCI -18
COTTONWOOD PAS CLOUDY    23   7  50 W10G22    29.72S WCI  12
GUNNISON       PTCLDY    23  12  63 NW6       29.82R WCI  16
KREMMLING      CLOUDY    21  14  73 SW7       29.82R WCI  13
LEADVILLE      LGT SNOW  16  12  84 CALM      29.70S FOG
SALIDA         PTCLDY    24  19  81 SE6       29.85R WCI  17
SUNLIGHT       CLOUDY    16  14  93 CALM        N/A
WILKERSON PASS PTCLDY    10   9  92 SW7       29.71F WCI   0
$$

COZ069>075-040700-
...SAN LUIS VALLEY/SANGRE DE CRISTO MOUNTAINS...

CITY           SKY/WX    TMP DP  RH WIND       PRES   REMARKS
ALAMOSA        CLEAR     24  18  77 W8        29.80F WCI  15
LA VETA PASS   CLOUDY    19  18  93 MISG      29.78S
SAGUACHE       CLEAR     25  19  80 N3        29.80R
$$

COZ035-036-038>040-040700-
...NORTHERN COLORADO FRONT RANGE...

CITY           SKY/WX    TMP DP  RH WIND       PRES   REMARKS
DENVER INTL AP LGT SNOW  17  15  92 NE10      29.92R FOG     WCI   5
DMNS CITY PARK   N/A     19  17  93 N3        29.93R
AURORA         LGT SNOW  17  16  96 E5        29.92R FOG     WCI  10
FRONT RANGE AP NOT AVBL
ERIE MUNI ARPT LGT SNOW  16  13  91 NE6       29.96R WCI   7
BOULDER MUN AP LGT SNOW  18  14  86 N8        29.95R WCI   7
CENTENNIAL     LGT SNOW  17  15  92 NE6       29.89R FOG     WCI   9
BROOMFIELD     LGT SNOW  18  14  86 N12       29.92R WCI   5
FORT COLLINS   MOCLDY    14  10  85 NE9       29.98R WCI   2
LONGMONT       LGT SNOW  17  13  83 NE8       29.99R WCI   7
$$

COZ041-046-047-076>085-087-088-040700-
...PIKES PEAK/PALMER DIVIDE AND SOUTHERN FOOTHILLS...

CITY           SKY/WX    TMP DP  RH WIND       PRES   REMARKS
COLO. SPRINGS  LGT SNOW  21  20  96 SE8       29.86R FOG     WCI  11
A. F. ACADEMY  FLURRIES  20  18  94 SE7       29.83S WCI  11
ELLICOTT       NOT AVBL
FALCON         SNOW      19  18  96 SE5       29.84S VSB 1/2 WCI  12
FORT CARSON    LGT SNOW  22  21  97 E7        29.85R WCI  14
LIMON          FLURRIES  19  15  84 E8        29.91S WCI   9
MONUMENT HILL  LGT SNOW  16  14  93 W10       29.81S WCI   3
TRINIDAD       FOG       28  26  92 NE8       29.83F VSB 1/2 WCI  20
$$

COZ042>045-048>051-090-091-040700-
...NORTHEAST COLORADO...

CITY           SKY/WX    TMP DP  RH WIND       PRES   REMARKS
GREELEY ARPT   MOCLDY    16   7  67 NE10      29.98R WCI   3
AKRON          LGT SNOW  16  14  92 NE9       29.96S FOG     WCI   4
BURLINGTON     CLOUDY    21  13  71 NE17      29.98R WCI   7
WRAY           LGT SNOW  19  16  90 NE7       30.04S WCI   9
STERLING       LGT SNOW  18  14  86 NE8       30.02S WCI   7
HOLYOKE        NOT AVBL
FORT MORGAN    LGT SNOW  15  12  85 NE17      29.99R WCI  -1
$$

COZ086-089-092>099-040700-
...SOUTHEAST COLORADO...

CITY           SKY/WX    TMP DP  RH WIND       PRES   REMARKS
PUEBLO         CLOUDY    25  24  96 E13       29.89S FOG     WCI  14
LA JUNTA       CLOUDY    27  21  78 E13       29.93R WCI  16
LAMAR          CLOUDY    27  19  72 E8        29.94S WCI  19
SPRINGFIELD      N/A     24  21  88 NE9       29.91R WCI  14
$$


USA.gov is the U.S. government's official web portal to all federal, state and local government web resources and services.